Location: Newark
(25.1987°N, 100.3705°W)
Time: 05:22:28
(UTC+00:00)

LightSail 2 - Pass Details

Date: 13 April 2020
Orbit: 695 x 719 km, 24.0° (Epoch: 28 May)

Event Time Altitude Azimuth Distance (km) Brightness Sun altitude
Exits shadow 09:51:09 31° 98° (E) 1,225 6.7 -32.5°
Drops below altitude 10° 09:53:45 10° 94° (E) 2,150 8.2 -32.0°
Sets 09:56:09 0° 93° (E) 3,064 9.2 -31.5°
